weather.gov     
National Weather Service

Terminal Aerodrome Forecast
NWS Homepage
This page is being discontinued on March 12, 2014.
The same data is available at this site. Please update your bookmarks.
Thank you, and we apologize for the inconvenience.
Please send an email to SR-SRH.Webmaster@noaa.gov with any concerns.


Current Version
Previous Version:    01  02  03  04  05  06  07  08  09  10  11  12  13  14  15  16  17  18  19  20  21  22  23  24  25  26  27  28  29  30  
   31  32  33  34  35  36  37  38  39  40  41  42  43  
[Printable]
517
FTUS43 KLMK 020500
TAFLEX
TAF
KLEX 020522Z 0206/0306 20007KT P6SM FEW040 SCT100
     FM021000 20009KT P6SM VCSH SCT040 BKN100
      TEMPO 0211/0214 5SM -SHRA BKN035
     FM021400 23011KT P6SM BKN035 BKN100
     FM021800 23010KT P6SM VCTS BKN035CB
     FM030000 20005KT P6SM SCT040=


U.S. Dept. of Commerce
NOAA National Weather Service
1325 East West Highway
Silver Spring, MD 20910
E-mail: w-nws.webmaster@noaa.gov
Page last modified: May 16, 2007
NATIONAL WEATHER SERVICE: for Safety, for Work, for Fun - FOR LIFE